Date,TemperatureHighF,TemperatureAvgF,TemperatureLowF,DewpointHighF,DewpointAvgF,DewpointLowF,HumidityHigh,HumidityAvg,HumidityLow,PressureMaxIn,PressureMinIn,WindSpeedMaxMPH,WindSpeedAvgMPH,GustSpeedMaxMPH,PrecipitationSumIn
2013-1-1,45.1,41.3,36.9,44.1,38.1,31.6,96,88,80,30.27,30.01,13,2,15,0.01
2013-1-2,40.3,35.5,29.3,32.5,30.3,27.5,93,81,70,30.34,30.25,10,2,13,0.00
2013-1-3,49.8,37.9,26.2,33.6,29.4,24.3,95,74,46,30.46,30.32,14,1,14,0.00
2013-1-4,49.5,43.6,38.5,35.1,32.3,30.7,77,65,51,30.51,30.34,6,0,6,0.00
2013-1-5,52.2,43.4,36.0,42.4,38.0,33.3,95,82,64,30.35,30.19,12,2,13,0.01
2013-1-6,57.6,41.5,30.9,33.8,30.8,27.1,95,70,33,30.38,30.27,9,1,10,0.00
2013-1-7,55.9,41.7,26.4,38.8,32.0,23.5,94,70,47,30.33,30.09,11,1,12,0.00
2013-1-8,48.4,47.1,45.9,47.5,42.7,35.6,97,85,66,30.09,29.94,10,2,12,0.97
2013-1-9,56.3,53.4,48.4,55.2,52.4,47.5,97,97,95,30.11,29.93,22,4,25,1.61
2013-1-10,61.0,55.3,48.0,57.4,51.0,45.1,98,86,66,29.98,29.87,20,6,24,0.04
2013-1-11,70.9,58.3,46.6,62.4,51.3,44.1,92,79,55,29.93,29.74,25,7,31,0.00
2013-1-12,69.6,55.3,36.9,68.2,53.2,33.6,98,93,85,29.91,29.62,19,4,24,0.69
2013-1-13,44.1,36.3,30.6,33.6,27.2,21.7,87,70,53,30.28,29.90,19,4,22,0.00
2013-1-14,44.8,34.9,28.0,29.5,24.7,21.0,76,67,49,30.35,30.21,12,3,16,0.00
2013-1-15,37.8,34.6,29.7,31.3,27.6,23.7,92,76,65,30.25,30.14,13,3,13,0.08
2013-1-16,49.5,36.5,27.3,28.6,24.2,18.9,90,63,38,30.30,30.15,12,2,13,0.02
2013-1-17,61.2,44.2,30.9,38.1,32.2,27.1,91,65,37,30.49,30.23,15,1,15,0.00
2013-1-18,62.1,45.6,29.8,40.5,34.9,27.5,95,69,42,30.50,30.25,18,3,18,0.00
2013-1-19,65.1,50.3,40.5,49.5,42.5,36.1,93,76,55,30.25,30.12,16,4,19,0.00
2013-1-20,69.1,50.5,35.6,51.6,43.4,34.0,98,79,49,30.20,30.04,11,1,12,0.00
2013-1-21,58.5,46.7,38.1,42.3,35.1,27.7,95,66,48,30.28,30.10,9,2,11,0.00
2013-1-22,63.9,48.7,35.8,49.3,39.3,27.7,86,70,57,30.30,30.16,10,2,11,0.00
2013-1-23,74.7,59.0,45.3,58.1,52.0,42.8,96,79,55,30.25,30.09,17,4,17,0.00
2013-1-24,76.8,62.4,53.2,63.1,57.6,51.8,98,86,60,30.16,29.99,16,4,16,0.00
2013-1-25,60.3,50.8,46.4,58.1,46.2,40.3,96,85,73,30.18,29.99,12,2,12,0.00
2013-1-26,52.0,48.2,45.0,49.1,46.0,40.5,97,92,78,30.20,30.08,9,1,9,0.01
2013-1-27,74.3,61.6,48.6,64.4,57.3,47.5,99,87,65,30.09,29.89,23,6,28,0.01
2013-1-28,76.8,71.9,67.6,68.2,65.2,63.5,89,80,66,29.96,29.80,27,10,27,0.00
2013-1-29,76.6,66.9,54.1,67.6,60.9,36.0,92,82,49,29.80,29.39,29,10,30,0.22
2013-1-30,55.2,47.6,36.9,40.8,30.8,22.8,79,54,34,30.12,29.64,27,7,27,0.00
2013-1-31,68.7,49.5,32.7,33.8,28.5,21.4,85,50,18,30.31,30.06,22,4,24,0.00
2013-2-1,61.3,44.6,30.4,38.3,30.1,19.6,81,58,40,30.39,30.15,13,3,16,0.00
2013-2-2,68.0,54.1,43.2,48.7,40.1,33.4,87,62,30,30.29,30.13,13,3,14,0.00
2013-2-3,69.3,52.8,36.3,45.5,35.2,28.8,92,57,25,30.29,29.96,11,2,12,0.00
2013-2-4,70.3,60.7,54.9,60.1,49.7,34.3,92,68,43,29.96,29.76,20,5,21,0.00
2013-2-5,64.0,58.8,54.1,61.0,57.0,51.6,98,94,89,29.99,29.84,8,2,9,0.01
2013-2-6,72.9,61.9,52.9,64.6,58.2,51.4,98,89,64,29.99,29.83,16,3,17,0.00
2013-2-7,81.3,64.2,56.3,62.2,55.4,44.1,95,76,32,30.05,29.75,20,7,23,0.00
2013-2-8,64.2,53.1,42.8,48.0,37.5,28.2,81,58,26,30.23,30.05,16,3,17,0.00
2013-2-9,60.1,50.8,47.1,58.8,46.9,40.5,97,87,67,30.12,29.72,19,5,20,0.02
2013-2-10,68.7,59.0,45.9,63.3,42.3,27.7,97,60,22,29.99,29.61,26,5,30,0.87
2013-2-11,54.9,50.8,46.8,41.9,36.6,30.6,78,59,43,30.13,29.97,17,3,19,0.00
2013-2-12,48.9,46.9,43.5,46.8,44.2,40.1,95,90,79,30.02,29.82,17,3,20,0.25
2013-2-13,56.7,46.0,39.9,42.4,38.4,36.0,90,76,53,30.14,30.00,17,3,20,0.25
2013-2-14,69.4,51.6,35.8,45.9,38.6,33.3,96,66,28,30.09,29.97,11,2,11,0.00
2013-2-15,52.3,46.8,35.2,41.2,30.2,19.2,80,54,30,30.36,30.07,13,4,16,0.00
2013-2-16,56.8,42.9,29.8,35.1,29.2,24.3,87,60,36,30.40,30.16,10,2,11,0.00
2013-2-17,70.5,54.4,38.1,47.3,36.0,30.4,80,53,27,30.16,29.88,27,9,28,0.00
2013-2-18,79.2,62.2,51.1,58.6,46.2,32.2,81,59,30,30.09,29.71,29,10,30,0.00
2013-2-19,61.2,51.3,38.1,35.6,29.6,23.7,80,45,26,30.31,30.08,11,2,14,0.00
2013-2-20,52.0,44.6,40.8,41.9,37.4,32.4,87,76,48,30.19,29.79,18,4,19,0.12
2013-2-21,67.1,53.0,42.3,52.5,40.7,31.3,94,67,29,29.91,29.60,18,5,22,0.06
2013-2-22,50.5,41.0,32.4,38.7,28.7,22.3,80,62,45,30.13,29.89,11,2,11,0.06
2013-2-23,55.9,42.3,30.6,37.8,29.6,25.5,83,63,39,30.08,29.91,12,1,12,0.00
2013-2-24,70.7,53.7,35.2,48.7,39.6,31.1,91,62,35,29.92,29.59,18,4,19,0.00
2013-2-25,63.9,52.4,40.3,53.1,40.7,31.5,85,66,39,29.62,29.41,27,7,29,0.01
2013-2-26,59.0,47.1,40.8,38.5,34.7,32.5,79,63,40,29.88,29.62,27,7,31,0.00
2013-2-27,57.9,46.0,36.9,35.1,29.4,21.2,87,56,27,30.20,29.86,22,4,22,0.00
2013-2-28,59.0,46.5,36.0,32.5,28.4,24.4,77,52,30,30.27,30.14,24,4,24,0.00
2013-3-1,55.9,43.8,31.8,34.2,30.2,25.7,87,60,40,30.29,30.17,14,2,15,0.00
2013-3-2,54.3,41.6,31.3,34.2,26.1,20.7,80,57,31,30.42,30.22,15,3,17,0.00
2013-3-3,70.2,53.4,36.0,45.3,33.9,27.0,84,51,29,30.22,29.78,26,8,29,0.00
2013-3-4,86.5,67.5,55.4,52.3,47.5,37.4,74,52,18,29.78,29.55,28,10,29,0.00
2013-3-5,66.6,50.9,41.9,45.5,28.0,18.9,67,43,23,30.35,29.72,25,5,27,0.00
2013-3-6,61.5,47.5,34.3,32.9,25.5,19.0,67,44,21,30.45,30.19,11,1,12,0.00
2013-3-7,70.3,55.0,37.9,38.8,33.2,27.5,79,47,24,30.23,30.07,20,4,23,0.00
2013-3-8,62.6,57.9,53.2,56.5,50.0,36.5,85,76,47,30.17,30.00,14,4,15,0.00
2013-3-10,55.2,50.0,39.7,53.8,38.8,31.3,95,66,53,30.06,29.68,26,6,30,0.30
2013-3-11,59.2,44.9,32.2,36.3,29.6,20.1,92,60,23,30.11,29.98,15,2,16,0.30
2013-3-12,66.7,52.1,37.0,38.3,31.9,25.9,82,50,25,30.28,30.02,12,1,15,0.00
2013-3-13,69.6,55.2,39.6,39.9,36.5,33.3,88,53,29,30.43,30.28,11,2,12,0.00
2013-3-14,77.4,62.3,47.7,50.7,42.9,33.4,69,50,35,30.33,30.13,20,6,23,0.00
2013-3-15,81.1,67.3,54.3,57.6,50.2,45.1,88,58,32,30.14,29.85,24,9,31,0.00
2013-3-16,81.3,69.3,58.1,61.9,56.3,49.3,88,65,48,29.85,29.65,27,12,29,0.00
2013-3-17,75.0,68.3,58.8,63.9,57.9,49.8,85,71,50,29.74,29.62,24,6,27,0.00
2013-3-18,71.1,62.4,54.5,63.7,49.7,38.1,94,65,44,29.98,29.60,19,4,22,0.00
2013-3-19,68.4,57.8,46.0,45.0,39.5,34.5,79,52,37,30.10,29.94,13,3,18,0.00
2013-3-20,67.5,57.2,46.0,38.5,34.8,25.2,70,45,22,30.28,30.00,13,2,16,0.00
2013-3-21,69.4,60.2,51.3,58.1,44.2,32.4,76,56,43,30.01,29.55,29,7,29,0.00
2013-3-22,65.8,53.5,46.8,61.7,49.6,43.7,95,87,71,29.83,29.54,15,3,17,0.00
2013-3-23,54.7,50.1,47.1,50.5,47.6,45.7,96,91,84,29.84,29.64,20,2,25,0.10
2013-3-24,53.8,46.3,39.9,48.7,31.9,23.4,94,59,36,30.16,29.77,26,7,26,0.01
2013-3-25,55.6,43.3,30.7,27.0,22.4,17.2,77,46,24,30.39,30.16,21,3,22,0.00
2013-3-26,58.5,43.9,29.8,35.6,25.7,20.5,84,51,28,30.50,30.29,10,1,10,0.00
2013-3-27,70.5,55.1,38.8,44.8,35.5,26.2,65,49,32,30.31,30.06,22,7,24,0.00
2013-3-28,70.3,61.8,51.1,58.1,52.5,42.8,84,72,61,30.20,30.05,18,7,21,0.00
2013-3-29,77.0,67.5,61.2,62.2,58.6,56.5,85,74,58,30.16,29.98,19,7,20,0.00
2013-3-30,77.2,66.8,55.9,67.1,61.2,54.9,97,83,66,30.05,29.85,19,4,21,0.90
2013-3-31,75.0,66.3,57.9,64.0,58.6,52.3,95,77,53,29.94,29.75,19,3,22,0.42
2013-4-1,79.3,65.2,49.3,56.8,52.4,47.8,96,67,36,30.04,29.90,10,1,11,0.00
2013-4-2,72.3,65.5,51.6,64.6,58.3,43.3,89,78,66,29.99,29.86,20,5,26,0.01
2013-4-3,54.0,48.9,45.9,48.4,45.7,43.9,95,89,75,30.13,29.92,14,2,21,0.66
2013-4-4,52.5,46.6,43.2,44.4,42.2,40.6,95,85,71,30.18,30.09,13,2,15,0.03
2013-4-5,70.5,55.2,40.1,52.9,45.7,38.3,95,73,44,30.23,30.01,10,2,13,0.00
2013-4-6,75.4,64.2,54.1,60.8,54.2,48.4,86,71,53,30.01,29.80,29,9,30,0.00
2013-4-7,72.9,66.9,60.4,63.9,60.5,56.5,89,80,70,29.88,29.71,24,8,26,0.00
2013-4-8,75.7,70.8,65.1,66.6,63.4,58.6,84,77,72,29.73,29.62,25,10,28,0.00
2013-4-9,85.1,74.4,67.5,69.1,65.9,62.2,91,76,53,29.68,29.58,27,8,28,0.00
2013-4-10,72.9,48.7,40.6,69.1,45.3,36.5,94,88,69,29.96,29.65,20,5,24,0.30
2013-4-11,62.8,49.1,39.7,44.4,36.3,30.4,90,63,39,29.96,29.79,15,1,15,0.30
2013-4-12,77.9,59.1,41.7,53.8,45.9,39.6,94,66,33,29.98,29.83,11,1,12,0.00
2013-4-13,78.8,66.0,51.1,57.2,50.8,46.2,87,60,37,29.98,29.74,19,4,22,0.00
2013-4-14,81.0,69.2,56.8,67.1,59.6,49.6,85,72,59,29.75,29.51,22,7,23,0.00
2013-4-15,86.7,76.6,67.6,72.1,67.7,64.9,93,75,56,29.71,29.57,24,9,24,0.00
2013-4-16,87.1,78.0,70.9,71.6,68.3,65.5,86,73,56,29.85,29.71,20,8,26,0.00
2013-4-17,85.3,77.6,73.6,72.3,70.1,68.5,91,79,62,29.83,29.57,27,10,30,0.00
2013-4-18,75.7,56.1,45.3,72.0,48.2,34.9,94,76,53,30.12,29.51,37,8,41,1.15
2013-4-19,64.2,50.3,38.8,45.0,34.0,27.3,85,57,27,30.26,30.11,24,2,24,1.15
2013-4-20,72.3,58.6,45.3,47.1,39.8,35.1,77,52,30,30.19,29.99,21,5,21,0.00
2013-4-21,72.0,60.9,49.3,55.0,48.9,41.9,84,66,49,30.19,30.04,16,3,16,0.00
2013-4-22,77.7,66.8,54.1,63.1,55.5,47.5,80,68,57,30.08,29.81,20,6,23,0.00
2013-4-23,67.3,55.8,42.8,62.8,51.4,39.2,92,85,74,30.15,29.77,24,7,24,0.01
2013-4-24,61.9,50.3,40.1,42.4,38.0,34.5,91,65,41,30.29,30.15,18,3,19,0.07
2013-4-25,74.7,61.8,48.6,49.8,44.0,37.2,73,53,35,30.32,30.12,12,2,14,0.00
2013-4-26,78.1,67.6,59.7,69.3,58.3,46.6,84,72,56,30.14,29.93,21,4,23,0.00
2013-4-27,73.8,69.1,60.8,66.4,61.2,56.1,91,77,57,30.07,29.94,16,4,17,0.00
2013-4-28,81.5,66.9,52.2,70.0,60.5,50.5,96,81,63,30.01,29.82,11,1,12,0.00
2013-4-29,85.8,73.6,60.3,68.0,63.5,58.1,95,73,49,29.87,29.74,19,4,19,0.00
2013-4-30,82.8,71.5,60.1,69.1,63.2,57.9,93,76,53,29.80,29.70,15,4,15,0.00
2013-5-1,85.5,73.7,64.9,71.8,65.2,62.2,92,76,49,29.92,29.74,17,3,17,0.00
2013-5-2,68.5,53.3,44.1,62.8,47.6,37.4,91,81,72,30.30,29.89,22,5,25,0.02
2013-5-3,66.9,53.2,39.7,42.3,34.2,27.1,82,54,25,30.27,29.99,20,4,22,0.00
2013-5-4,73.2,57.7,42.4,43.9,37.8,24.4,92,54,19,30.00,29.86,21,3,25,0.00
2013-5-5,68.2,56.8,45.9,50.0,44.3,39.2,83,64,47,30.12,29.99,14,2,17,0.00
2013-5-6,78.3,63.8,48.4,59.0,52.0,45.7,92,68,41,30.09,29.95,9,1,11,0.00
2013-5-7,83.8,71.3,55.2,62.6,56.1,52.5,93,62,35,30.04,29.89,11,2,13,0.00
2013-5-8,85.8,74.1,63.7,63.9,59.0,55.0,78,61,43,29.96,29.81,22,6,26,0.00
2013-5-9,72.9,68.8,67.1,68.4,64.8,59.4,97,87,65,29.93,29.81,17,4,19,0.33
2013-5-10,81.7,71.6,64.9,70.0,64.7,59.5,98,81,59,30.00,29.83,10,1,12,0.00
2013-5-11,80.4,70.5,59.5,60.1,54.4,47.5,88,60,34,30.13,29.97,19,1,20,0.00
2013-5-12,78.6,67.4,55.9,55.4,45.3,36.3,72,48,26,30.23,30.10,13,1,18,0.00
2013-5-13,87.1,71.6,55.8,59.2,51.0,45.1,76,51,30,30.20,30.06,19,4,19,0.00
2013-5-14,87.3,75.2,61.7,66.7,58.9,50.2,86,59,35,30.11,29.93,22,6,23,0.00
2013-5-15,78.6,71.3,63.1,70.0,67.1,61.7,96,87,72,30.00,29.72,22,9,25,2.31
2013-5-16,81.5,70.8,62.6,74.1,67.3,61.7,97,89,75,29.80,29.70,18,5,22,0.02
2013-5-17,90.9,80.3,72.1,78.4,73.6,70.3,97,81,61,29.81,29.73,17,4,19,0.00
2013-5-18,92.5,81.8,72.1,76.6,72.5,68.2,89,75,56,29.85,29.70,21,8,23,0.00
2013-5-19,90.9,80.9,71.4,75.4,70.6,66.4,87,72,56,29.78,29.61,29,11,29,0.00
2013-5-20,90.1,81.3,74.7,75.2,71.6,69.3,85,73,59,29.77,29.59,26,10,27,0.00
2013-5-21,84.9,72.8,63.0,74.8,67.8,60.8,96,85,71,29.82,29.61,24,6,32,1.75
2013-5-22,84.6,70.7,56.1,67.8,61.6,55.0,98,76,43,29.91,29.79,9,1,9,0.00
2013-5-23,88.2,78.5,70.5,75.9,71.8,65.3,96,80,63,30.02,29.83,16,3,16,0.00
2013-5-24,87.1,78.7,68.9,76.6,72.3,65.3,95,81,65,30.15,29.95,12,2,14,0.24
2013-5-25,85.3,73.0,66.9,75.2,69.5,64.0,96,89,67,30.12,29.99,22,3,22,0.40
2013-5-26,87.3,78.4,70.3,75.9,72.2,68.9,97,82,62,30.04,29.88,20,7,21,0.11
2013-5-27,86.9,79.1,72.7,74.7,70.7,68.7,89,76,61,29.94,29.74,21,8,22,0.00
2013-5-28,86.7,79.2,72.0,71.8,69.3,66.7,89,73,55,29.84,29.72,25,9,25,0.00
2013-5-29,84.6,76.9,70.3,74.7,71.2,66.7,94,83,71,29.78,29.66,33,9,33,0.30
2013-5-30,89.1,80.3,74.3,78.6,73.5,70.3,90,80,65,29.75,29.64,25,10,27,0.02
2013-5-31,91.0,83.0,77.4,78.3,74.4,72.5,87,76,60,29.78,29.61,25,10,27,0.00
2013-6-1,88.3,80.1,76.3,77.5,73.2,69.4,92,80,69,29.90,29.66,25,6,28,0.02
2013-6-2,83.5,75.4,66.4,69.3,59.5,52.0,84,60,35,30.02,29.89,16,2,18,0.02
2013-6-3,88.7,75.7,61.5,68.0,62.7,58.1,91,67,41,29.96,29.79,11,2,11,0.00
2013-6-4,91.9,80.6,70.9,75.0,69.0,64.6,82,69,49,29.97,29.73,21,5,24,0.00
2013-6-5,91.4,82.0,73.4,76.1,71.4,68.9,88,71,53,29.89,29.68,19,3,24,0.00
2013-6-6,81.1,73.8,68.0,73.2,68.6,66.0,96,84,70,29.90,29.74,15,1,19,0.92
2013-6-7,84.0,73.1,62.2,65.8,60.7,54.9,94,69,39,29.97,29.84,11,1,14,0.00
2013-6-8,88.9,76.0,61.9,68.7,63.6,60.1,96,68,47,29.90,29.74,16,3,16,0.00
2013-6-9,88.0,78.2,68.5,74.5,69.6,65.3,96,76,55,29.90,29.80,15,2,18,0.82
2013-6-10,97.5,83.6,70.3,75.6,70.5,65.5,95,68,39,29.91,29.84,15,3,17,0.00
2013-6-11,93.9,84.6,75.0,77.5,73.3,69.1,90,70,53,29.97,29.86,16,6,18,0.00
2013-6-12,94.5,84.8,75.7,78.3,73.6,71.1,91,71,51,30.00,29.86,18,5,19,0.00
2013-6-13,97.5,86.6,75.9,77.5,72.8,69.6,85,65,42,30.00,29.83,10,2,12,0.00
2013-6-14,96.1,86.9,76.3,77.5,73.4,70.9,87,66,49,29.93,29.82,9,1,11,0.00
2013-6-15,90.7,82.4,72.1,79.2,74.5,69.1,95,78,65,29.95,29.82,29,2,31,0.42
2013-6-16,95.5,85.4,75.9,79.2,74.0,70.3,92,71,47,29.96,29.81,17,3,17,0.00
2013-6-17,91.2,81.6,69.6,79.3,74.3,67.1,96,79,63,29.99,29.80,22,2,29,0.47
2013-6-18,83.5,77.5,73.2,75.6,71.3,68.9,89,82,69,29.95,29.83,13,1,15,0.01
2013-6-19,92.3,81.5,72.0,78.4,73.7,69.8,96,78,58,29.94,29.81,11,2,13,0.00
2013-6-20,95.5,85.8,77.2,76.1,73.2,69.8,88,68,45,29.99,29.87,18,6,19,0.00
2013-6-21,96.3,86.1,76.3,76.5,72.7,68.7,86,66,43,30.01,29.90,20,6,20,0.00
2013-6-22,96.1,85.6,75.7,77.4,72.4,69.6,86,66,45,29.99,29.82,19,6,20,0.00
2013-6-23,95.7,85.9,76.5,76.5,72.1,68.2,86,65,43,29.94,29.82,21,7,21,0.00
2013-6-24,96.4,86.3,76.8,75.9,72.1,69.3,85,64,44,29.98,29.83,19,7,21,0.00
2013-6-25,97.5,87.5,77.5,75.4,71.7,67.3,84,62,41,29.94,29.76,23,8,24,0.00
2013-6-26,98.4,88.0,77.4,78.1,72.3,66.9,84,61,45,29.91,29.78,21,7,21,0.00
2013-6-27,99.1,88.1,78.4,79.3,72.9,68.7,80,62,40,29.95,29.79,13,3,16,0.00
2013-6-28,102.6,88.6,78.4,75.4,70.2,65.3,78,56,34,29.88,29.75,14,1,14,0.00
2013-6-29,97.2,86.5,75.4,71.6,65.7,59.4,83,53,30,29.84,29.73,17,1,17,0.00
2013-6-30,90.7,81.7,73.2,69.6,61.6,55.4,83,53,32,29.88,29.75,19,1,19,0.00
2013-7-1,88.2,77.9,68.5,62.8,60.3,57.9,75,56,38,29.97,29.88,13,1,16,0.00
2013-7-2,89.1,78.2,66.7,60.8,56.2,49.8,74,49,28,30.03,29.94,12,1,14,0.00
2013-7-3,91.6,78.0,63.9,66.4,58.2,49.6,89,56,26,30.01,29.89,9,1,10,0.00
2013-7-4,95.5,83.1,73.0,70.2,63.6,56.5,74,54,29,29.96,29.84,14,3,18,0.00
2013-7-5,96.6,84.3,71.8,72.0,65.4,61.0,80,55,33,29.95,29.80,13,2,14,0.00
2013-7-6,97.0,85.0,72.9,73.6,66.4,62.4,82,56,34,29.90,29.80,12,4,19,0.00
2013-7-7,97.9,86.9,75.9,75.0,70.0,65.1,81,59,37,29.95,29.85,13,3,15,0.00
2013-7-8,97.0,86.0,77.0,76.5,72.8,69.8,85,66,45,30.03,29.92,16,5,18,0.00
2013-7-9,100.4,88.7,78.1,74.3,69.3,63.0,83,55,31,30.06,29.91,15,4,17,0.00
2013-7-10,102.2,91.3,82.0,75.2,71.0,66.4,75,53,33,29.99,29.83,12,3,15,0.00
2013-7-11,104.0,88.1,81.0,78.3,72.4,68.2,78,61,37,29.91,29.81,21,3,22,0.00
2013-7-12,101.7,88.0,75.6,76.5,72.6,68.0,89,64,37,29.92,29.81,10,2,11,0.00
2013-7-13,99.9,88.3,78.3,73.4,68.8,61.9,80,54,35,29.94,29.81,13,2,14,0.00
2013-7-14,80.1,73.6,70.3,70.9,67.5,61.2,95,83,54,29.97,29.83,9,1,12,0.26
2013-7-15,77.0,72.1,68.2,72.5,69.5,66.7,97,92,83,30.05,29.91,10,1,10,0.27
2013-7-16,91.2,78.4,72.3,76.8,72.9,70.0,95,84,54,30.18,30.03,16,2,21,0.27
2013-7-17,91.0,80.1,71.6,78.8,73.2,70.3,98,81,56,30.18,30.08,14,2,21,0.16
2013-7-18,96.3,83.9,72.1,76.8,72.7,69.8,94,71,44,30.13,29.94,12,1,14,0.16
2013-7-19,93.2,80.8,76.5,77.2,74.2,70.9,94,81,53,29.99,29.87,11,1,13,0.17
2013-7-20,95.9,82.1,73.4,79.2,73.4,68.5,95,77,42,29.93,29.79,15,2,15,0.00
2013-7-21,97.0,84.9,74.1,79.9,74.1,71.1,94,72,47,29.87,29.78,22,5,22,0.00
2013-7-22,98.1,87.4,77.7,79.5,74.8,71.2,90,68,46,29.92,29.79,18,6,18,0.00
2013-7-23,99.1,88.8,79.3,81.0,74.5,65.7,86,64,43,29.91,29.74,18,5,21,0.00
2013-7-24,96.1,84.8,75.6,77.0,71.7,67.6,84,66,45,30.00,29.79,19,3,19,0.00
2013-7-25,97.0,84.9,73.6,78.3,73.0,69.6,91,69,47,30.00,29.91,11,1,11,0.00
2013-7-26,96.1,84.2,76.6,79.5,74.3,72.5,95,73,50,29.96,29.78,17,3,17,0.14
2013-7-27,90.9,80.4,72.5,72.9,69.1,65.1,89,70,45,29.96,29.85,11,2,13,0.00
2013-7-28,93.6,82.4,69.8,74.5,70.4,67.1,92,69,47,29.94,29.81,13,2,13,0.00
2013-7-29,96.3,86.3,77.7,79.3,73.1,64.9,88,67,41,29.94,29.85,17,6,19,0.00
2013-7-30,99.3,88.3,79.0,76.6,71.4,63.1,82,59,44,30.03,29.88,19,6,20,0.00
2013-7-31,102.6,89.9,79.0,78.3,72.2,67.6,78,58,38,30.00,29.84,18,3,18,0.00
2013-8-1,102.9,90.5,80.1,76.3,73.5,70.2,87,60,37,29.94,29.81,12,1,12,0.00
2013-8-2,104.7,91.5,79.9,75.4,71.7,67.3,78,55,34,29.88,29.79,17,4,17,0.00
2013-8-3,102.0,90.1,78.6,75.4,71.7,67.6,80,57,35,29.95,29.85,12,4,16,0.00
2013-8-4,101.1,89.7,79.5,77.0,72.5,66.9,81,59,36,30.01,29.85,12,3,14,0.00
2013-8-5,104.0,91.5,81.3,73.8,70.3,64.6,74,52,32,29.94,29.77,16,4,19,0.00
2013-8-6,105.3,91.7,79.9,75.4,70.0,64.0,76,51,32,29.85,29.72,16,5,19,0.00
2013-8-7,106.5,92.5,80.2,76.1,71.0,65.8,78,52,32,29.83,29.69,18,6,18,0.00
2013-8-8,104.2,91.3,80.1,75.2,71.1,66.7,82,54,35,29.82,29.70,14,4,16,0.00
2013-8-9,105.1,90.9,80.1,74.8,68.4,57.7,73,51,25,29.89,29.75,14,3,14,0.00
2013-8-10,99.7,87.2,76.5,79.0,72.8,68.7,92,65,41,29.99,29.88,10,1,10,0.00
2013-8-11,102.0,88.2,77.5,77.5,72.5,65.8,84,62,33,30.01,29.88,15,2,23,0.00
2013-8-12,100.8,89.3,78.1,76.3,72.1,68.2,83,59,38,29.99,29.85,13,3,15,0.00
2013-8-13,101.7,85.4,76.3,77.0,72.4,68.9,94,67,39,29.94,29.81,19,2,21,0.20
2013-8-14,89.6,81.7,75.9,77.4,73.8,69.4,95,78,61,29.97,29.88,16,2,16,0.01
2013-8-15,90.7,80.0,71.1,70.0,66.2,62.4,82,64,46,30.02,29.90,12,2,12,0.00
2013-8-16,90.0,78.7,68.2,70.0,65.4,61.0,94,66,42,30.03,29.90,13,2,14,0.05
2013-8-17,90.9,77.6,63.9,66.2,61.4,59.4,90,60,36,30.05,29.92,14,1,14,0.00
2013-8-18,93.7,79.5,66.9,69.3,64.0,60.1,85,62,35,30.05,29.93,9,1,11,0.00
2013-8-19,96.6,84.2,73.8,70.3,65.0,59.9,78,55,33,30.02,29.87,13,2,13,0.00
2013-8-20,98.2,85.3,73.8,69.6,64.2,57.2,73,51,27,29.99,29.88,12,2,12,0.00
2013-8-21,97.2,85.4,73.6,71.8,67.8,63.1,80,57,37,30.04,29.92,12,2,13,0.00
2013-8-22,101.5,88.2,76.3,74.5,70.6,67.6,82,58,37,30.03,29.86,12,2,12,0.00
2013-8-23,101.7,89.1,79.0,76.1,71.2,66.7,81,58,35,29.97,29.83,18,2,18,0.00
2013-8-24,101.8,89.1,78.4,75.6,70.8,66.4,83,57,34,30.00,29.89,13,2,13,0.00
2013-8-25,99.0,88.0,77.2,74.7,69.6,66.6,79,57,36,30.09,29.98,13,2,14,0.00
2013-8-26,98.4,86.6,76.6,72.7,69.2,62.6,83,59,34,30.12,29.98,17,4,19,0.00
2013-8-27,97.9,84.0,75.6,74.5,71.0,65.5,87,67,36,30.08,29.95,18,4,21,0.00
2013-8-28,100.8,85.9,73.4,73.6,69.8,65.5,88,62,34,30.05,29.92,12,1,12,0.00
2013-8-29,102.0,88.1,74.8,72.3,68.8,63.1,86,57,30,30.02,29.88,9,1,10,0.00
2013-8-30,103.8,90.1,76.5,72.5,68.0,63.7,76,51,29,29.95,29.80,10,1,10,0.00
2013-8-31,105.3,90.7,77.5,75.7,69.0,59.4,80,52,24,29.85,29.71,11,2,11,0.00
2013-9-1,103.8,91.1,80.2,75.0,69.7,64.8,72,51,31,29.82,29.69,12,3,14,0.00
2013-9-2,94.3,84.8,77.5,76.3,72.9,69.6,89,69,48,29.95,29.78,13,1,15,0.02
2013-9-3,100.0,87.1,74.8,74.5,67.6,60.6,74,55,32,29.94,29.81,9,1,10,0.00
2013-9-4,102.0,88.2,74.8,75.4,69.3,64.0,84,56,31,29.99,29.87,18,2,20,0.00
2013-9-5,101.5,88.7,77.5,75.6,68.0,62.1,78,53,30,30.05,29.92,12,1,12,0.00
2013-9-6,102.0,87.8,75.4,73.8,67.3,63.0,76,53,30,30.03,29.88,14,1,14,0.00
2013-9-7,100.8,87.5,76.8,74.7,68.9,63.3,82,57,31,29.98,29.84,16,3,17,0.00
2013-9-8,98.1,85.2,72.7,74.1,68.0,62.1,87,60,32,29.93,29.81,12,2,13,0.00
2013-9-9,95.9,85.0,72.3,71.8,68.5,64.4,88,60,40,29.95,29.85,15,3,18,0.00
2013-9-10,96.4,84.4,76.3,74.7,67.8,57.7,87,61,30,30.05,29.93,19,3,19,0.00
2013-9-11,99.3,84.0,72.3,74.3,69.3,65.1,84,63,40,30.07,29.94,13,2,15,0.00
2013-9-12,97.5,85.9,74.5,72.7,69.6,65.7,86,61,38,30.02,29.86,8,1,9,0.00
2013-9-13,97.9,85.5,75.6,74.3,70.3,64.0,85,62,40,29.92,29.77,12,2,16,0.02
2013-9-14,94.5,83.4,73.6,70.3,64.8,59.9,71,55,39,29.93,29.82,13,2,14,0.00
2013-9-15,95.4,84.2,73.9,72.7,66.2,60.3,67,55,43,29.98,29.89,11,2,11,0.00
2013-9-16,98.4,86.3,74.8,73.8,68.1,64.2,79,57,36,30.04,29.90,11,2,12,0.00
2013-9-17,93.6,86.4,77.7,72.1,68.6,65.8,74,56,43,30.02,29.88,11,1,11,0.00
2013-9-18,98.1,86.9,78.1,73.2,68.5,64.0,72,56,35,29.96,29.81,15,3,17,0.00
2013-9-19,90.7,82.3,72.5,75.2,72.0,66.7,95,72,55,29.94,29.81,18,2,18,0.26
2013-9-20,75.2,73.1,69.8,72.7,70.8,64.8,97,93,83,29.89,29.79,15,2,18,2.04
2013-9-21,84.0,71.6,61.3,64.6,54.8,46.8,85,60,29,29.94,29.81,15,1,16,0.00
2013-9-22,84.4,70.0,56.8,59.9,55.5,50.5,92,64,33,29.91,29.75,10,1,15,0.00
2013-9-23,86.2,73.1,61.0,64.0,57.5,54.3,84,61,36,29.83,29.70,14,2,14,0.00
2013-9-24,93.9,77.8,64.0,69.1,59.2,47.8,94,59,23,29.88,29.78,13,1,13,0.00
2013-9-25,94.5,76.1,58.8,60.8,56.5,51.3,89,56,25,29.86,29.72,6,0,9,0.00
2013-9-26,95.7,80.4,65.7,66.0,60.1,55.8,79,52,30,29.84,29.74,14,3,14,0.00
2013-9-27,88.7,79.1,67.3,74.5,68.4,61.5,88,70,59,29.90,29.79,15,4,17,0.00
2013-9-28,88.5,76.1,66.4,77.9,71.4,64.8,96,86,69,29.99,29.83,17,4,17,1.51
2013-9-29,82.6,71.0,63.7,64.8,59.1,51.1,95,69,36,30.01,29.86,10,1,11,0.00
2013-9-30,87.1,73.1,59.5,68.4,60.8,54.5,93,69,35,29.88,29.76,10,1,13,0.00
2013-10-1,90.1,78.7,69.3,73.8,70.1,65.5,96,77,46,29.91,29.79,13,3,14,0.00
2013-10-2,87.3,79.4,74.5,75.0,71.9,69.6,92,79,59,29.94,29.81,18,5,18,0.00
2013-10-3,91.0,80.7,73.8,77.2,72.3,69.4,92,77,52,29.89,29.76,17,6,22,0.00
2013-10-4,90.3,80.8,74.8,74.8,71.5,69.1,92,75,53,29.87,29.78,19,6,20,0.00
2013-10-5,78.4,65.1,52.5,72.7,59.5,45.7,94,83,63,30.06,29.81,17,4,19,0.26
2013-10-6,74.5,60.1,49.8,51.8,45.5,33.6,95,65,23,30.09,29.99,16,2,19,0.26
2013-10-7,81.3,62.5,47.1,52.9,46.5,37.9,93,63,23,30.12,30.02,9,0,13,0.00
2013-10-8,80.1,64.8,49.5,56.7,51.9,46.9,94,67,36,30.09,29.96,9,1,10,0.00
2013-10-9,82.6,70.2,57.6,61.5,56.7,53.1,89,64,41,30.04,29.94,13,3,15,0.00
2013-10-10,82.8,72.0,61.2,65.1,60.6,57.2,91,69,46,30.03,29.84,15,3,15,0.00
2013-10-11,85.5,76.0,67.6,72.9,68.4,62.8,92,78,64,29.91,29.77,18,6,20,0.00
2013-10-12,90.7,77.9,71.2,78.6,72.4,67.8,93,84,59,30.02,29.83,17,3,17,0.14
2013-10-13,76.3,71.9,68.5,70.9,68.4,66.7,96,89,80,30.16,30.00,10,1,12,0.02
2013-10-14,73.0,71.1,69.1,71.8,69.7,67.3,97,96,90,30.09,29.88,15,4,16,0.85
2013-10-15,79.5,67.5,54.0,75.0,65.5,52.5,96,93,80,30.03,29.86,17,3,18,0.85
2013-10-16,64.6,57.3,52.7,55.2,52.4,49.6,97,85,62,30.07,29.96,10,1,11,0.29
2013-10-17,72.5,58.6,46.9,54.1,49.2,44.2,92,73,44,30.11,29.95,7,0,11,0.00
2013-10-18,70.7,60.6,51.6,57.9,53.6,49.1,95,79,58,30.06,29.86,14,2,19,0.01
2013-10-19,64.8,52.8,42.4,49.1,42.6,38.5,88,71,41,30.19,30.05,16,2,19,0.00
2013-10-20,72.3,56.7,42.4,49.6,45.6,40.6,95,70,38,30.06,29.85,17,4,20,0.00
2013-10-21,73.9,61.0,53.6,64.2,54.5,48.2,90,80,67,30.07,29.88,18,2,18,0.00
2013-10-22,75.9,58.4,42.6,53.6,46.2,40.1,94,68,33,30.14,29.99,10,1,10,0.00
2013-10-23,81.9,63.3,47.8,56.7,51.1,45.1,95,68,32,30.10,29.99,9,1,9,0.00
2013-10-24,78.6,64.9,52.5,58.6,51.4,45.1,89,63,44,30.25,30.02,10,1,11,0.00
2013-10-25,68.4,58.7,50.4,50.2,46.2,41.7,84,64,48,30.38,30.22,13,2,13,0.00
2013-10-26,76.8,63.1,55.6,65.3,56.2,48.0,95,79,67,30.22,29.98,17,4,17,1.45
2013-10-27,69.6,63.1,59.5,62.1,59.0,57.7,96,87,71,30.09,29.97,6,0,12,0.01
2013-10-28,76.5,66.2,54.3,68.5,62.3,52.3,97,88,76,30.08,29.96,11,2,13,0.00
2013-10-29,75.4,72.0,68.9,70.7,68.6,66.4,94,89,85,30.04,29.95,18,6,18,0.00
2013-10-30,72.3,69.0,65.8,69.3,66.7,63.7,96,93,88,29.98,29.76,22,6,24,0.10
2013-10-31,75.6,67.8,54.1,69.1,57.0,43.7,98,72,34,29.84,29.63,23,4,29,0.01
2013-11-1,76.5,61.0,47.7,54.5,49.9,44.4,96,70,44,30.05,29.79,13,1,14,0.00
2013-11-2,67.8,57.5,47.8,45.9,41.5,36.0,86,58,32,30.26,30.05,13,1,15,0.00
2013-11-3,66.4,54.3,40.5,48.2,43.8,38.3,94,70,43,30.19,29.97,17,4,19,0.00
2013-11-4,60.4,58.2,54.1,59.4,54.1,47.5,96,87,67,30.08,29.97,18,4,18,0.76
2013-11-5,68.7,64.7,60.4,67.8,63.7,59.4,97,96,95,30.03,29.90,14,4,16,0.31
2013-11-6,69.6,56.1,44.1,68.4,51.1,40.1,97,84,63,30.34,29.92,22,3,24,0.31
2013-11-7,64.0,49.9,37.8,47.8,41.4,36.0,96,76,42,30.49,30.33,6,0,8,0.00
2013-11-8,67.5,54.3,41.5,49.8,44.4,39.7,96,72,42,30.36,30.11,16,3,16,0.00
2013-11-9,67.6,59.6,55.0,53.8,50.1,46.9,80,71,60,30.20,30.09,13,4,15,0.00
2013-11-10,67.3,58.0,49.8,51.4,49.0,45.7,90,73,50,30.31,30.19,7,0,8,0.00
2013-11-11,73.4,57.6,45.0,55.9,50.5,43.3,97,79,50,30.26,30.13,9,0,10,0.00
2013-11-12,60.3,48.5,36.0,57.2,34.6,20.5,93,61,32,30.67,30.25,15,2,20,0.00
2013-11-13,52.7,39.6,29.5,34.3,27.6,22.6,87,64,37,30.68,30.36,8,0,9,0.00
2013-11-14,59.4,47.1,33.3,46.9,35.2,28.6,87,66,34,30.36,30.00,15,4,16,0.00
2013-11-15,69.8,60.2,53.4,58.6,53.6,46.6,89,79,65,30.00,29.81,17,4,17,0.00
2013-11-16,74.8,68.6,61.0,70.3,64.7,58.3,95,88,76,29.83,29.64,22,8,26,0.00
2013-11-17,86.4,75.4,63.7,70.3,59.7,41.4,91,62,32,29.97,29.65,21,4,26,0.00
2013-11-18,70.3,62.3,54.0,41.2,35.9,31.1,50,38,25,30.14,29.97,12,2,14,0.00
2013-11-19,68.0,60.0,55.2,42.3,37.5,33.3,55,44,28,30.15,29.99,14,3,14,0.00
2013-11-20,64.0,57.4,48.0,53.2,43.4,35.2,77,60,49,30.01,29.87,15,5,16,0.01
2013-11-21,71.4,64.0,45.0,68.9,61.3,42.1,96,91,77,30.18,29.92,18,4,19,0.10
2013-11-22,44.6,37.7,35.4,41.7,35.6,33.4,95,92,89,30.43,30.16,23,3,23,0.20
2013-11-23,43.0,38.6,36.0,38.8,34.8,28.2,95,87,67,30.53,30.41,12,1,12,0.03
2013-11-24,37.0,34.7,32.0,28.8,26.7,23.4,79,73,63,30.59,30.35,15,1,17,0.01
2013-11-25,37.9,35.8,33.3,36.1,33.5,27.5,95,91,72,30.35,30.14,8,1,8,0.75
2013-11-26,52.5,42.2,36.0,37.4,33.2,23.7,94,72,47,30.36,30.11,18,3,18,0.01
2013-11-27,47.1,36.1,28.6,27.1,22.6,17.6,85,60,34,30.46,30.33,12,1,12,0.00
2013-11-28,52.9,37.7,27.1,32.5,28.1,24.1,91,71,37,30.45,30.35,10,1,10,0.00
2013-11-29,56.7,41.8,27.1,42.3,33.7,24.4,95,75,47,30.52,30.34,12,1,12,0.00
2013-11-30,65.7,52.1,38.3,53.4,44.4,33.8,91,76,56,30.34,30.12,18,4,18,0.00
2013-12-1,69.8,58.8,50.2,60.3,54.3,47.8,96,85,69,30.15,29.86,15,3,20,0.00
2013-12-2,69.4,54.2,41.5,54.7,47.8,39.7,97,81,54,29.86,29.63,10,1,11,0.00
2013-12-3,74.3,54.8,40.6,52.5,43.9,38.8,97,72,30,29.65,29.49,9,1,9,0.00
2013-12-4,78.3,62.0,49.1,61.5,51.3,37.0,89,70,45,29.85,29.55,15,2,16,0.00
2013-12-5,48.7,35.4,30.2,37.6,27.8,23.2,93,75,60,30.17,29.84,16,2,17,0.00
2013-12-6,32.7,28.3,24.1,31.1,25.8,20.5,94,90,86,30.51,30.09,5,0,7,0.00
2013-12-7,26.2,23.9,20.7,24.4,21.0,16.9,93,89,85,30.54,30.28,0,0,0,0.00
2013-12-8,34.0,30.8,26.2,32.4,29.3,24.4,95,94,93,30.28,30.04,1,0,1,0.13
2013-12-9,32.9,31.9,28.4,31.5,29.3,23.4,95,90,81,30.41,30.15,0,0,0,0.16
2013-12-10,38.7,28.7,19.9,29.1,23.4,16.5,90,81,65,30.53,30.35,5,0,6,0.42
2013-12-11,43.9,33.1,24.1,35.2,28.3,22.1,94,83,64,30.59,30.32,8,0,9,0.42
2013-12-12,49.3,37.7,25.9,37.0,30.5,23.0,92,76,55,30.61,30.29,7,0,8,0.21
2013-12-13,46.4,42.7,40.5,45.1,39.2,33.8,96,88,74,30.29,29.78,13,4,16,0.07
2013-12-14,47.1,41.8,33.1,46.4,37.5,27.5,97,85,69,30.31,29.76,23,3,25,0.01
2013-12-15,61.0,42.6,27.9,37.2,31.8,25.0,95,69,37,30.35,30.21,7,1,8,0.00
2013-12-16,66.4,49.6,36.0,40.6,36.9,32.5,88,65,35,30.23,30.12,12,3,12,0.00
2013-12-17,70.0,50.5,34.5,44.2,38.4,31.1,92,66,34,30.27,30.17,10,0,10,0.00
2013-12-18,70.0,51.7,33.6,47.5,40.7,30.9,96,69,37,30.24,29.98,23,4,23,0.00
2013-12-19,71.4,61.7,51.6,63.5,56.1,47.5,94,82,69,29.98,29.71,25,8,26,0.00
2013-12-20,69.6,57.9,36.7,64.6,54.0,35.1,94,87,70,29.82,29.72,20,4,22,0.00
2013-12-21,54.0,43.9,35.8,52.9,42.8,34.2,98,96,94,29.75,29.49,11,1,15,1.71
2013-12-22,46.8,37.7,30.9,46.0,32.2,26.4,97,81,62,30.38,29.75,15,3,18,0.01
2013-12-23,46.2,34.3,24.6,32.9,27.6,22.1,93,77,50,30.56,30.37,7,0,9,0.00
2013-12-24,51.3,37.9,25.3,38.1,30.7,22.8,93,76,54,30.55,30.26,15,3,18,0.00
2013-12-25,59.5,44.5,35.8,44.8,36.1,30.7,85,73,54,30.40,30.26,12,2,15,0.00
2013-12-26,53.8,40.4,30.7,40.3,34.1,28.8,95,79,56,30.44,30.32,6,0,7,0.00
2013-12-27,58.3,43.7,31.1,42.6,36.3,29.1,95,77,50,30.45,30.31,8,0,8,0.01
2013-12-28,61.2,47.8,33.4,45.1,39.0,30.7,95,73,49,30.31,29.95,12,2,13,0.00
2013-12-29,52.5,40.3,32.5,43.5,33.5,24.6,89,76,69,30.27,29.92,18,2,18,0.00
2013-12-30,44.2,35.1,29.8,26.2,23.2,19.4,81,62,44,30.41,30.24,12,2,15,0.00
2013-12-31,53.2,39.1,25.9,32.0,27.0,22.3,90,64,38,30.44,30.19,15,2,15,0.00
2014-1-1,66.7,48.3,34.5,51.1,38.0,27.1,87,69,47,30.20,29.85,26,7,27,0.00
2014-1-2,43.7,32.9,24.8,27.3,20.8,17.4,79,62,40,30.46,30.17,24,4,24,0.00